Location: Banios
(43.0451°N, 0.2335°E)
Time: 00:33:56
(UTC+00:00)

ISS - Visible Passes

Search period start: 08 December 2021 00:00
Search period end: 18 December 2021 00:00
Orbit: 417 x 422 km, 51.6° (Epoch: 07 December)

Date Brightness Start Highest point End Pass type
(mag) Time Alt. Az. Time Alt. Az. Time Alt. Az.
08 Dec -3.6 17:02:57 10° WNW 17:06:20 77° SW 17:09:43 10° SE visible
09 Dec -0.7 17:53:10 10° W 17:55:25 17° SW 17:57:41 10° S visible
10 Dec -1.3 17:05:15 10° WNW 17:08:11 27° SW 17:11:06 10° SSE visible
17 Dec -0.8 06:41:44 10° S 06:44:23 22° SE 06:47:03 10° E visible
